| time (UTC) | temp F | wind direction | speed MPH | gust MPH | rain 1hr in | rain 24hr in | rain mn in | humidity % | barometer mb |
| 20260509051158 | 80 | 116 | 2.0 | 8.0 | 0.00 | 0.00 | 0.00 | 90 | 1014.5 |
| 20260509050654 | 80 | 115 | 4.0 | 8.0 | 0.00 | 0.00 | 0.00 | 90 | 1014.5 |
| 20260509050128 | 80 | 113 | 3.0 | 7.0 | 0.00 | 0.00 | 0.00 | 90 | 1014.6 |
| 20260509045716 | 80 | 113 | 3.0 | 9.0 | 0.00 | 0.00 | 0.00 | 90 | 1014.6 |
| 20260509045151 | 80 | 113 | 3.0 | 9.0 | 0.00 | 0.00 | 0.00 | 90 | 1014.7 |
| 20260509044647 | 80 | 107 | 4.0 | 7.0 | 0.00 | 0.00 | 0.00 | 90 | 1014.7 |
| 20260509044145 | 80 | 107 | 3.0 | 7.0 | 0.00 | 0.00 | 0.00 | 90 | 1014.7 |
| 20260509043643 | 80 | 107 | 4.0 | 7.0 | 0.00 | 0.00 | 0.00 | 90 | 1014.8 |
| 20260509043141 | 80 | 107 | 3.0 | 7.0 | 0.00 | 0.00 | 0.00 | 90 | 1014.9 |
| 20260509042639 | 80 | 107 | 1.0 | 7.0 | 0.00 | 0.00 | 0.00 | 90 | 1014.9 |
| 20260509042217 | 80 | 107 | 2.0 | 7.0 | 0.00 | 0.00 | 0.00 | 90 | 1014.9 |
| 20260509041633 | 80 | 107 | 4.0 | 7.0 | 0.00 | 0.00 | 0.00 | 89 | 1014.9 |
| 20260509041151 | 80 | 106 | 3.0 | 7.0 | 0.00 | 0.00 | 0.00 | 90 | 1014.9 |
| 20260509040707 | 80 | 106 | 3.0 | 8.0 | 0.00 | 0.00 | 0.00 | 89 | 1014.9 |
| 20260509040203 | 80 | 105 | 2.0 | 8.0 | 0.00 | 0.00 | 0.00 | 90 | 1014.9 |
| 20260509035708 | 80 | 105 | 3.0 | 7.0 | 0.00 | 0.00 | 0.00 | 90 | 1015.0 |
| 20260509035142 | 80 | 105 | 3.0 | 7.0 | 0.00 | 0.00 | 0.00 | 89 | 1015.0 |
| 20260509034637 | 80 | 105 | 2.0 | 7.0 | 0.00 | 0.00 | 0.00 | 89 | 1015.0 |
| 20260509034154 | 80 | 105 | 2.0 | 7.0 | 0.00 | 0.00 | 0.00 | 89 | 1015.0 |
| 20260509033631 | 80 | 105 | 4.0 | 9.0 | 0.00 | 0.00 | 0.00 | 89 | 1015.0 |
| 20260509033227 | 80 | 104 | 4.0 | 9.0 | 0.00 | 0.00 | 0.00 | 89 | 1015.0 |
| 20260509032642 | 80 | 101 | 3.0 | 6.0 | 0.00 | 0.00 | 0.00 | 89 | 1015.1 |
| 20260509032158 | 80 | 101 | 3.0 | 6.0 | 0.00 | 0.00 | 0.00 | 89 | 1015.0 |
| 20260509031736 | 80 | 101 | 2.0 | 8.0 | 0.00 | 0.00 | 0.00 | 89 | 1015.1 |
| 20260509031130 | 80 | 101 | 3.0 | 7.0 | 0.00 | 0.00 | 0.00 | 89 | 1015.2 |
| 20260509030709 | 80 | 101 | 2.0 | 8.0 | 0.00 | 0.00 | 0.00 | 88 | 1015.1 |
| 20260509030227 | 80 | 101 | 3.0 | 8.0 | 0.00 | 0.00 | 0.00 | 88 | 1015.1 |
| 20260509025654 | 80 | 101 | 2.0 | 6.0 | 0.00 | 0.00 | 0.00 | 88 | 1015.2 |
| 20260509025130 | 80 | 101 | 1.0 | 6.0 | 0.00 | 0.00 | 0.00 | 88 | 1015.1 |
| 20260509024647 | 80 | 101 | 3.0 | 6.0 | 0.00 | 0.00 | 0.00 | 88 | 1015.3 |
| 20260509024143 | 80 | 101 | 2.0 | 6.0 | 0.00 | 0.00 | 0.00 | 88 | 1015.2 |
| 20260509023659 | 80 | 101 | 2.0 | 7.0 | 0.00 | 0.00 | 0.00 | 87 | 1015.1 |
| 20260509023215 | 80 | 101 | 3.0 | 8.0 | 0.00 | 0.00 | 0.00 | 87 | 1015.0 |
| 20260509022631 | 80 | 100 | 4.0 | 10.0 | 0.00 | 0.00 | 0.00 | 87 | 1014.9 |
| 20260509022128 | 80 | 99 | 5.0 | 10.0 | 0.00 | 0.00 | 0.00 | 87 | 1014.8 |
| 20260509021646 | 80 | 98 | 5.0 | 9.0 | 0.00 | 0.00 | 0.00 | 87 | 1014.8 |
| 20260509021204 | 81 | 98 | 3.0 | 8.0 | 0.00 | 0.00 | 0.00 | 87 | 1014.8 |
| 20260509020641 | 81 | 98 | 2.0 | 9.0 | 0.00 | 0.00 | 0.00 | 87 | 1014.8 |
| 20260509020137 | 81 | 98 | 5.0 | 9.0 | 0.00 | 0.00 | 0.00 | 86 | 1014.7 |
| 20260509015646 | 81 | 97 | 3.0 | 8.0 | 0.00 | 0.00 | 0.00 | 86 | 1014.7 |
| 20260509015204 | 81 | 98 | 3.0 | 8.0 | 0.00 | 0.00 | 0.00 | 86 | 1014.8 |
| 20260509014642 | 81 | 98 | 4.0 | 8.0 | 0.00 | 0.00 | 0.00 | 86 | 1014.7 |
| 20260509014159 | 81 | 97 | 3.0 | 7.0 | 0.00 | 0.00 | 0.00 | 86 | 1014.5 |
| 20260509013633 | 81 | 97 | 3.0 | 7.0 | 0.00 | 0.00 | 0.00 | 86 | 1014.6 |
| 20260509013129 | 81 | 97 | 3.0 | 9.0 | 0.00 | 0.00 | 0.00 | 86 | 1014.5 |
| 20260509012647 | 81 | 98 | 6.0 | 9.0 | 0.00 | 0.00 | 0.00 | 86 | 1014.4 |
| 20260509012145 | 81 | 107 | 3.0 | 9.0 | 0.00 | 0.00 | 0.00 | 86 | 1014.5 |
| 20260509011643 | 81 | 95 | 4.0 | 8.0 | 0.00 | 0.00 | 0.00 | 86 | 1014.4 |
| 20260509011220 | 81 | 91 | 3.0 | 8.0 | 0.00 | 0.00 | 0.00 | 85 | 1014.4 |
| 20260509010637 | 81 | 96 | 4.0 | 9.0 | 0.00 | 0.00 | 0.00 | 85 | 1014.3 |
| 20260509010135 | 81 | 96 | 5.0 | 9.0 | 0.00 | 0.00 | 0.00 | 85 | 1014.1 |
| 20260509005644 | 81 | 93 | 5.0 | 9.0 | 0.00 | 0.00 | 0.00 | 85 | 1014.0 |
| 20260509005142 | 81 | 88 | 5.0 | 9.0 | 0.00 | 0.00 | 0.00 | 85 | 1014.0 |
| 20260509004641 | 81 | 84 | 5.0 | 9.0 | 0.00 | 0.00 | 0.00 | 85 | 1013.8 |
| 20260509004219 | 81 | 95 | 4.0 | 9.0 | 0.00 | 0.00 | 0.00 | 85 | 1013.7 |
| 20260509004137 | 81 | 95 | 4.0 | 9.0 | 0.00 | 0.00 | 0.00 | 85 | 1013.7 |
| 20260509003655 | 81 | 87 | 3.0 | 9.0 | 0.00 | 0.00 | 0.00 | 85 | 1013.7 |
| 20260509003151 | 81 | 86 | 3.0 | 9.0 | 0.00 | 0.00 | 0.00 | 85 | 1013.6 |
| 20260509002649 | 81 | 93 | 3.0 | 9.0 | 0.00 | 0.00 | 0.00 | 84 | 1013.5 |
| 20260509002145 | 81 | 92 | 5.0 | 9.0 | 0.00 | 0.00 | 0.00 | 84 | 1013.3 |
| 20260509001703 | 81 | 103 | 6.0 | 11.0 | 0.00 | 0.00 | 0.00 | 84 | 1013.4 |
| 20260509001219 | 81 | 105 | 7.0 | 11.0 | 0.00 | 0.00 | 0.00 | 84 | 1013.3 |
| 20260509000655 | 81 | 97 | 3.0 | 9.0 | 0.00 | 0.00 | 0.00 | 84 | 1013.5 |
| 20260509000131 | 82 | 96 | 4.0 | 9.0 | 0.00 | 0.00 | 0.00 | 83 | 1013.3 |
| 20260508235640 | 81 | 92 | 3.0 | 8.0 | 0.00 | 0.00 | 0.00 | 84 | 1013.3 |
| 20260508235137 | 81 | 92 | 4.0 | 8.0 | 0.00 | 0.00 | 0.00 | 83 | 1013.3 |
| 20260508234655 | 81 | 92 | 2.0 | 9.0 | 0.00 | 0.00 | 0.00 | 83 | 1013.4 |
| 20260508234153 | 82 | 88 | 4.0 | 8.0 | 0.00 | 0.00 | 0.00 | 83 | 1013.4 |
| 20260508233648 | 82 | 96 | 3.0 | 10.0 | 0.00 | 0.00 | 0.00 | 83 | 1013.4 |
| 20260508233205 | 82 | 96 | 5.0 | 10.0 | 0.00 | 0.00 | 0.00 | 83 | 1013.3 |
| 20260508232722 | 82 | 111 | 7.0 | 10.0 | 0.00 | 0.00 | 0.00 | 82 | 1013.2 |
| 20260508232138 | 82 | 105 | 5.0 | 10.0 | 0.00 | 0.00 | 0.00 | 83 | 1013.2 |
| 20260508231635 | 82 | 98 | 6.0 | 10.0 | 0.00 | 0.00 | 0.00 | 81 | 1013.3 |
| 20260508231133 | 82 | 96 | 6.0 | 9.0 | 0.00 | 0.00 | 0.00 | 82 | 1013.4 |
| 20260508230712 | 82 | 111 | 4.0 | 9.0 | 0.00 | 0.00 | 0.00 | 82 | 1013.2 |
| 20260508230208 | 82 | 92 | 4.0 | 9.0 | 0.00 | 0.00 | 0.00 | 82 | 1013.2 |
| 20260508225636 | 82 | 98 | 5.0 | 12.0 | 0.00 | 0.00 | 0.00 | 82 | 1013.2 |
| 20260508225214 | 82 | 114 | 6.0 | 11.0 | 0.00 | 0.00 | 0.00 | 81 | 1013.2 |
| 20260508224729 | 83 | 116 | 7.0 | 13.0 | 0.00 | 0.00 | 0.00 | 82 | 1013.1 |
| 20260508224225 | 83 | 84 | 8.0 | 13.0 | 0.00 | 0.00 | 0.00 | 81 | 1013.1 |
| 20260508223720 | 83 | 103 | 6.0 | 12.0 | 0.00 | 0.00 | 0.00 | 81 | 1012.9 |
| 20260508223234 | 83 | 59 | 7.0 | 12.0 | 0.00 | 0.00 | 0.00 | 80 | 1012.9 |
| 20260508222723 | 83 | 76 | 5.0 | 11.0 | 0.00 | 0.00 | 0.00 | 80 | 1013.0 |
| 20260508222141 | 83 | 87 | 5.0 | 12.0 | 0.00 | 0.00 | 0.00 | 81 | 1012.9 |
| 20260508221713 | 83 | 120 | 5.0 | 12.0 | 0.00 | 0.00 | 0.00 | 81 | 1012.9 |
| 20260508221146 | 83 | 99 | 7.0 | 12.0 | 0.00 | 0.00 | 0.00 | 81 | 1012.9 |
| 20260508220702 | 83 | 108 | 5.0 | 12.0 | 0.00 | 0.00 | 0.00 | 81 | 1012.9 |
| 20260508220138 | 83 | 90 | 5.0 | 11.0 | 0.00 | 0.00 | 0.00 | 81 | 1013.0 |
| 20260508215748 | 83 | 97 | 7.0 | 13.0 | 0.00 | 0.00 | 0.00 | 82 | 1013.1 |
| 20260508215644 | 83 | 97 | 7.0 | 13.0 | 0.00 | 0.00 | 0.00 | 82 | 1013.1 |
| 20260508215220 | 83 | 99 | 9.0 | 13.0 | 0.00 | 0.00 | 0.00 | 81 | 1013.2 |
| 20260508214636 | 83 | 90 | 9.0 | 12.0 | 0.00 | 0.00 | 0.00 | 80 | 1013.2 |
| 20260508214233 | 83 | 70 | 6.0 | 12.0 | 0.00 | 0.00 | 0.00 | 80 | 1013.2 |
| 20260508213708 | 83 | 51 | 8.0 | 13.0 | 0.00 | 0.00 | 0.00 | 80 | 1013.2 |
| 20260508213204 | 83 | 113 | 6.0 | 13.0 | 0.00 | 0.00 | 0.00 | 80 | 1013.2 |
| 20260508212700 | 83 | 85 | 6.0 | 13.0 | 0.00 | 0.00 | 0.00 | 81 | 1013.3 |
| 20260508212157 | 83 | 59 | 7.0 | 14.0 | 0.00 | 0.00 | 0.00 | 79 | 1013.3 |
| 20260508211715 | 84 | 73 | 7.0 | 14.0 | 0.00 | 0.00 | 0.00 | 80 | 1013.2 |
| 20260508211132 | 84 | 113 | 8.0 | 15.0 | 0.00 | 0.00 | 0.00 | 79 | 1013.3 |
| 20260508210630 | 84 | 76 | 7.0 | 15.0 | 0.00 | 0.00 | 0.00 | 79 | 1013.3 |
| 20260508210207 | 84 | 98 | 6.0 | 14.0 | 0.00 | 0.00 | 0.00 | 79 | 1013.3 |
| 20260508205654 | 84 | 103 | 6.0 | 14.0 | 0.00 | 0.00 | 0.00 | 78 | 1013.1 |
| 20260508205211 | 84 | 93 | 8.0 | 13.0 | 0.00 | 0.00 | 0.00 | 78 | 1013.2 |
| 20260508204725 | 84 | 106 | 6.0 | 13.0 | 0.00 | 0.00 | 0.00 | 77 | 1013.2 |
| 20260508204200 | 85 | 96 | 7.0 | 13.0 | 0.00 | 0.00 | 0.00 | 74 | 1013.3 |
| 20260508203636 | 84 | 69 | 6.0 | 14.0 | 0.00 | 0.00 | 0.00 | 73 | 1013.4 |
| 20260508203134 | 85 | 126 | 7.0 | 14.0 | 0.00 | 0.00 | 0.00 | 73 | 1013.5 |
| 20260508202653 | 85 | 90 | 5.0 | 12.0 | 0.00 | 0.00 | 0.00 | 73 | 1013.5 |
| 20260508202130 | 85 | 97 | 6.0 | 12.0 | 0.00 | 0.00 | 0.00 | 71 | 1013.5 |
| 20260508201706 | 85 | 78 | 6.0 | 13.0 | 0.00 | 0.00 | 0.00 | 74 | 1013.6 |
| 20260508201144 | 85 | 112 | 8.0 | 13.0 | 0.00 | 0.00 | 0.00 | 73 | 1013.8 |
| 20260508200642 | 85 | 88 | 6.0 | 12.0 | 0.00 | 0.00 | 0.00 | 74 | 1013.9 |
| 20260508200159 | 85 | 78 | 6.0 | 12.0 | 0.00 | 0.00 | 0.00 | 72 | 1014.0 |
| 20260508195646 | 85 | 66 | 4.0 | 12.0 | 0.00 | 0.00 | 0.00 | 75 | 1014.0 |
| 20260508195144 | 85 | 84 | 6.0 | 12.0 | 0.00 | 0.00 | 0.00 | 74 | 1014.3 |
| 20260508194643 | 85 | 97 | 9.0 | 14.0 | 0.00 | 0.00 | 0.00 | 73 | 1014.3 |
| 20260508194140 | 85 | 78 | 5.0 | 14.0 | 0.00 | 0.00 | 0.00 | 73 | 1014.4 |
| 20260508193638 | 85 | 109 | 5.0 | 12.0 | 0.00 | 0.00 | 0.00 | 74 | 1014.3 |
| 20260508193136 | 85 | 86 | 6.0 | 15.0 | 0.00 | 0.00 | 0.00 | 75 | 1014.5 |
| 20260508192654 | 85 | 69 | 8.0 | 15.0 | 0.00 | 0.00 | 0.00 | 74 | 1014.3 |
| 20260508192130 | 85 | 86 | 5.0 | 10.0 | 0.00 | 0.00 | 0.00 | 75 | 1014.4 |
| 20260508191647 | 85 | 84 | 5.0 | 13.0 | 0.00 | 0.00 | 0.00 | 75 | 1014.6 |
| 20260508191145 | 85 | 54 | 8.0 | 14.0 | 0.00 | 0.00 | 0.00 | 76 | 1014.5 |
| 20260508190704 | 85 | 102 | 7.0 | 15.0 | 0.00 | 0.00 | 0.00 | 75 | 1014.5 |
| 20260508190141 | 85 | 80 | 7.0 | 12.0 | 0.00 | 0.00 | 0.00 | 74 | 1014.5 |
| 20260508185648 | 85 | 115 | 4.0 | 12.0 | 0.00 | 0.00 | 0.00 | 74 | 1014.7 |
| 20260508185128 | 85 | 82 | 6.0 | 12.0 | 0.00 | 0.00 | 0.00 | 75 | 1014.7 |
| 20260508184741 | 85 | 55 | 5.0 | 12.0 | 0.00 | 0.00 | 0.00 | 72 | 1014.6 |
| 20260508184658 | 85 | 55 | 5.0 | 12.0 | 0.00 | 0.00 | 0.00 | 72 | 1014.6 |
| 20260508184154 | 85 | 88 | 5.0 | 11.0 | 0.00 | 0.00 | 0.00 | 73 | 1014.7 |
| 20260508183711 | 85 | 83 | 3.0 | 13.0 | 0.00 | 0.00 | 0.00 | 75 | 1014.7 |
| 20260508183206 | 85 | 105 | 7.0 | 13.0 | 0.00 | 0.00 | 0.00 | 73 | 1014.7 |
| 20260508182643 | 86 | 114 | 5.0 | 11.0 | 0.00 | 0.00 | 0.00 | 74 | 1014.8 |
| 20260508182140 | 85 | 14 | 4.0 | 11.0 | 0.00 | 0.00 | 0.00 | 74 | 1014.9 |
| 20260508181717 | 85 | 9 | 6.0 | 11.0 | 0.00 | 0.00 | 0.00 | 72 | 1014.9 |
| 20260508181635 | 85 | 9 | 6.0 | 11.0 | 0.00 | 0.00 | 0.00 | 72 | 1014.9 |
| 20260508181132 | 85 | 70 | 5.0 | 13.0 | 0.00 | 0.00 | 0.00 | 70 | 1015.1 |
| 20260508180729 | 85 | 51 | 5.0 | 13.0 | 0.00 | 0.00 | 0.00 | 71 | 1015.1 |
| 20260508180647 | 85 | 51 | 5.0 | 13.0 | 0.00 | 0.00 | 0.00 | 71 | 1015.1 |
| 20260508180225 | 85 | 78 | 6.0 | 10.0 | 0.00 | 0.00 | 0.00 | 71 | 1015.1 |
| 20260508175712 | 86 | 75 | 6.0 | 10.0 | 0.00 | 0.00 | 0.00 | 70 | 1015.1 |
| 20260508175207 | 86 | 69 | 5.0 | 12.0 | 0.00 | 0.00 | 0.00 | 71 | 1015.0 |
| 20260508174644 | 86 | 98 | 6.0 | 12.0 | 0.00 | 0.00 | 0.00 | 71 | 1015.1 |
| 20260508174242 | 86 | 116 | 5.0 | 12.0 | 0.00 | 0.00 | 0.00 | 70 | 1015.0 |
| 20260508173637 | 86 | 134 | 4.0 | 10.0 | 0.00 | 0.00 | 0.00 | 72 | 1015.1 |
| 20260508173134 | 86 | 114 | 4.0 | 11.0 | 0.00 | 0.00 | 0.00 | 71 | 1015.2 |
| 20260508172633 | 86 | 74 | 5.0 | 11.0 | 0.00 | 0.00 | 0.00 | 71 | 1015.2 |
| 20260508172149 | 86 | 96 | 7.0 | 12.0 | 0.00 | 0.00 | 0.00 | 70 | 1015.3 |
| 20260508171643 | 86 | 100 | 4.0 | 12.0 | 0.00 | 0.00 | 0.00 | 72 | 1015.4 |
| 20260508171139 | 86 | 100 | 4.0 | 12.0 | 0.00 | 0.00 | 0.00 | 71 | 1015.5 |
| 20260508170657 | 87 | 32 | 5.0 | 9.0 | 0.00 | 0.00 | 0.00 | 70 | 1015.5 |
| 20260508170212 | 86 | 30 | 5.0 | 9.0 | 0.00 | 0.00 | 0.00 | 71 | 1015.5 |
| 20260508165657 | 86 | 70 | 4.0 | 9.0 | 0.00 | 0.00 | 0.00 | 70 | 1015.7 |
| 20260508165153 | 86 | 59 | 5.0 | 9.0 | 0.00 | 0.00 | 0.00 | 70 | 1015.7 |
| 20260508164631 | 86 | 58 | 5.0 | 10.0 | 0.00 | 0.00 | 0.00 | 72 | 1015.9 |
| 20260508164129 | 86 | 99 | 5.0 | 11.0 | 0.00 | 0.00 | 0.00 | 72 | 1015.9 |
| 20260508163706 | 86 | 92 | 6.0 | 11.0 | 0.00 | 0.00 | 0.00 | 71 | 1016.0 |
| 20260508163204 | 86 | 68 | 3.0 | 13.0 | 0.00 | 0.00 | 0.00 | 73 | 1016.1 |
| 20260508162640 | 86 | 36 | 3.0 | 13.0 | 0.00 | 0.00 | 0.00 | 73 | 1016.0 |
| 20260508162139 | 86 | 77 | 5.0 | 11.0 | 0.00 | 0.00 | 0.00 | 73 | 1016.0 |
| 20260508161717 | 86 | 77 | 6.0 | 10.0 | 0.00 | 0.00 | 0.00 | 74 | 1016.0 |
| 20260508161153 | 86 | 83 | 6.0 | 10.0 | 0.00 | 0.00 | 0.00 | 72 | 1016.1 |
| 20260508160630 | 86 | 130 | 5.0 | 11.0 | 0.00 | 0.00 | 0.00 | 72 | 1016.2 |
| 20260508160229 | 86 | 75 | 6.0 | 13.0 | 0.00 | 0.00 | 0.00 | 71 | 1016.1 |
| 20260508160147 | 86 | 75 | 6.0 | 13.0 | 0.00 | 0.00 | 0.00 | 71 | 1016.1 |
| 20260508155637 | 87 | 125 | 5.0 | 13.0 | 0.00 | 0.00 | 0.00 | 71 | 1016.3 |
| 20260508155135 | 87 | 83 | 4.0 | 11.0 | 0.00 | 0.00 | 0.00 | 72 | 1016.3 |
| 20260508154633 | 87 | 74 | 6.0 | 10.0 | 0.00 | 0.00 | 0.00 | 71 | 1016.2 |
| 20260508154151 | 87 | 74 | 5.0 | 9.0 | 0.00 | 0.00 | 0.00 | 71 | 1016.3 |
| 20260508153647 | 87 | 88 | 5.0 | 9.0 | 0.00 | 0.00 | 0.00 | 71 | 1016.5 |
| 20260508153243 | 87 | 355 | 3.0 | 9.0 | 0.00 | 0.00 | 0.00 | 70 | 1016.5 |
| 20260508152637 | 86 | 89 | 4.0 | 10.0 | 0.00 | 0.00 | 0.00 | 69 | 1016.4 |
| 20260508152135 | 86 | 13 | 2.0 | 10.0 | 0.00 | 0.00 | 0.00 | 62 | 1016.4 |
| 20260508151633 | 86 | 355 | 4.0 | 8.0 | 0.00 | 0.00 | 0.00 | 63 | 1016.5 |
| 20260508151150 | 86 | 39 | 4.0 | 8.0 | 0.00 | 0.00 | 0.00 | 62 | 1016.4 |
| 20260508150707 | 86 | 344 | 3.0 | 8.0 | 0.00 | 0.00 | 0.00 | 67 | 1016.4 |
| 20260508150204 | 85 | 9 | 4.0 | 8.0 | 0.00 | 0.00 | 0.00 | 67 | 1016.4 |
| 20260508145632 | 85 | 336 | 2.0 | 8.0 | 0.00 | 0.00 | 0.00 | 67 | 1016.3 |
| 20260508145250 | 85 | 333 | 4.0 | 8.0 | 0.00 | 0.00 | 0.00 | 66 | 1016.3 |
| 20260508144704 | 85 | 355 | 2.0 | 6.0 | 0.00 | 0.00 | 0.00 | 69 | 1016.3 |
| 20260508144141 | 85 | 314 | 2.0 | 8.0 | 0.00 | 0.00 | 0.00 | 69 | 1016.2 |
| 20260508143639 | 84 | 332 | 4.0 | 10.0 | 0.00 | 0.00 | 0.00 | 69 | 1016.2 |
| 20260508143157 | 84 | 360 | 4.0 | 10.0 | 0.00 | 0.00 | 0.00 | 69 | 1016.3 |
| 20260508142634 | 84 | 5 | 6.0 | 11.0 | 0.00 | 0.00 | 0.00 | 69 | 1016.2 |
| 20260508142211 | 84 | 302 | 5.0 | 11.0 | 0.00 | 0.00 | 0.00 | 70 | 1016.2 |
| 20260508141726 | 84 | 336 | 4.0 | 8.0 | 0.00 | 0.00 | 0.00 | 70 | 1016.2 |
| 20260508141141 | 84 | 5 | 3.0 | 9.0 | 0.00 | 0.00 | 0.00 | 71 | 1016.1 |
| 20260508140635 | 83 | 351 | 5.0 | 10.0 | 0.00 | 0.00 | 0.00 | 70 | 1016.1 |
| 20260508140211 | 83 | 9 | 5.0 | 11.0 | 0.00 | 0.00 | 0.00 | 70 | 1016.1 |
| 20260508140129 | 83 | 9 | 5.0 | 11.0 | 0.00 | 0.00 | 0.00 | 70 | 1016.1 |
| 20260508135637 | 83 | 24 | 7.0 | 11.0 | 0.00 | 0.00 | 0.00 | 70 | 1016.2 |
| 20260508135135 | 83 | 323 | 5.0 | 10.0 | 0.00 | 0.00 | 0.00 | 71 | 1016.1 |
| 20260508134712 | 83 | 360 | 5.0 | 10.0 | 0.00 | 0.00 | 0.00 | 71 | 1016.1 |
| 20260508134227 | 83 | 15 | 4.0 | 10.0 | 0.00 | 0.00 | 0.00 | 71 | 1016.0 |
| 20260508133718 | 82 | 341 | 4.0 | 8.0 | 0.00 | 0.00 | 0.00 | 72 | 1016.0 |
| 20260508133234 | 82 | 321 | 4.0 | 9.0 | 0.00 | 0.00 | 0.00 | 73 | 1016.1 |
| 20260508132648 | 82 | 341 | 3.0 | 9.0 | 0.00 | 0.00 | 0.00 | 74 | 1016.0 |
| 20260508132145 | 82 | 5 | 5.0 | 9.0 | 0.00 | 0.00 | 0.00 | 73 | 1016.1 |
| 20260508131704 | 81 | 339 | 4.0 | 9.0 | 0.00 | 0.00 | 0.00 | 75 | 1016.0 |
| 20260508131200 | 81 | 349 | 4.0 | 9.0 | 0.00 | 0.00 | 0.00 | 75 | 1016.0 |
| 20260508130718 | 81 | 331 | 4.0 | 6.0 | 0.00 | 0.00 | 0.00 | 75 | 1015.9 |
| 20260508130153 | 80 | 19 | 4.0 | 6.0 | 0.00 | 0.00 | 0.00 | 75 | 1015.8 |
| 20260508125638 | 80 | 346 | 3.0 | 6.0 | 0.00 | 0.00 | 0.00 | 76 | 1015.8 |
| 20260508125156 | 80 | 347 | 4.0 | 9.0 | 0.00 | 0.00 | 0.00 | 76 | 1015.8 |
| 20260508124652 | 79 | 330 | 5.0 | 9.0 | 0.00 | 0.00 | 0.00 | 76 | 1015.7 |
| 20260508124128 | 79 | 337 | 3.0 | 8.0 | 0.00 | 0.00 | 0.00 | 77 | 1015.8 |
| 20260508123643 | 79 | 321 | 2.0 | 9.0 | 0.00 | 0.00 | 0.00 | 77 | 1015.8 |
| 20260508123218 | 78 | 345 | 5.0 | 9.0 | 0.00 | 0.00 | 0.00 | 77 | 1015.8 |
| 20260508122653 | 78 | 319 | 2.0 | 8.0 | 0.00 | 0.00 | 0.00 | 78 | 1015.8 |
| 20260508122249 | 78 | 332 | 4.0 | 6.0 | 0.00 | 0.00 | 0.00 | 78 | 1015.8 |
| 20260508121724 | 77 | 308 | 3.0 | 6.0 | 0.00 | 0.00 | 0.00 | 78 | 1015.7 |
| 20260508121159 | 77 | 312 | 3.0 | 6.0 | 0.00 | 0.00 | 0.00 | 78 | 1015.6 |
| 20260508120636 | 77 | 334 | 2.0 | 5.0 | 0.00 | 0.00 | 0.00 | 78 | 1015.5 |
| 20260508120134 | 76 | 337 | 3.0 | 6.0 | 0.00 | 0.00 | 0.00 | 78 | 1015.5 |
| 20260508115704 | 76 | 322 | 2.0 | 6.0 | 0.00 | 0.00 | 0.00 | 78 | 1015.4 |
| 20260508115221 | 76 | 347 | 2.0 | 6.0 | 0.00 | 0.00 | 0.00 | 78 | 1015.3 |
| 20260508114737 | 75 | 341 | 3.0 | 6.0 | 0.00 | 0.00 | 0.00 | 79 | 1015.3 |
| 20260508114655 | 75 | 341 | 3.0 | 6.0 | 0.00 | 0.00 | 0.00 | 79 | 1015.3 |
| 20260508114133 | 75 | 154 | 2.0 | 7.0 | 0.00 | 0.00 | 0.00 | 79 | 1015.3 |
| 20260508113710 | 75 | 154 | 2.0 | 7.0 | 0.00 | 0.00 | 0.00 | 80 | 1015.3 |
| 20260508113205 | 75 | 154 | 1.0 | 7.0 | 0.00 | 0.00 | 0.00 | 80 | 1015.3 |
| 20260508112700 | 74 | 154 | 3.0 | 5.0 | 0.00 | 0.00 | 0.00 | 81 | 1015.2 |
| 20260508112136 | 74 | 154 | 1.0 | 5.0 | 0.00 | 0.00 | 0.00 | 81 | 1015.2 |
| 20260508111654 | 74 | 154 | 1.0 | 4.0 | 0.00 | 0.00 | 0.00 | 82 | 1015.0 |
| 20260508111151 | 74 | 154 | 0.0 | 0.0 | 0.00 | 0.00 | 0.00 | 82 | 1014.9 |
| 20260508110707 | 73 | 154 | 0.0 | 0.0 | 0.00 | 0.00 | 0.00 | 82 | 1014.9 |
| 20260508110145 | 73 | 154 | 0.0 | 0.0 | 0.00 | 0.00 | 0.00 | 82 | 1014.9 |
| 20260508105634 | 73 | 154 | 0.0 | 0.0 | 0.00 | 0.00 | 0.00 | 82 | 1014.8 |
| 20260508105153 | 73 | 154 | 0.0 | 0.0 | 0.00 | 0.00 | 0.00 | 81 | 1014.6 |
| 20260508104650 | 73 | 154 | 0.0 | 3.0 | 0.00 | 0.00 | 0.00 | 82 | 1014.6 |
| 20260508104147 | 74 | 154 | 0.0 | 5.0 | 0.00 | 0.00 | 0.00 | 82 | 1014.5 |
| 20260508103646 | 74 | 154 | 1.0 | 5.0 | 0.00 | 0.00 | 0.00 | 82 | 1014.6 |
| 20260508103203 | 74 | 154 | 0.0 | 5.0 | 0.00 | 0.00 | 0.00 | 82 | 1014.5 |
| 20260508102640 | 74 | 154 | 1.0 | 5.0 | 0.00 | 0.00 | 0.00 | 82 | 1014.4 |
| 20260508102136 | 74 | 154 | 1.0 | 6.0 | 0.00 | 0.00 | 0.00 | 82 | 1014.3 |
| 20260508101653 | 74 | 154 | 1.0 | 5.0 | 0.00 | 0.00 | 0.00 | 82 | 1014.2 |
| 20260508101207 | 74 | 154 | 1.0 | 5.0 | 0.00 | 0.00 | 0.00 | 82 | 1014.2 |
| 20260508100641 | 74 | 154 | 1.0 | 4.0 | 0.00 | 0.00 | 0.00 | 82 | 1014.2 |
| 20260508100157 | 74 | 154 | 0.0 | 5.0 | 0.00 | 0.00 | 0.00 | 82 | 1014.2 |
| 20260508095741 | 74 | 154 | 1.0 | 5.0 | 0.00 | 0.00 | 0.00 | 82 | 1014.1 |
| 20260508095659 | 74 | 154 | 1.0 | 5.0 | 0.00 | 0.00 | 0.00 | 82 | 1014.1 |
| 20260508095139 | 74 | 154 | 1.0 | 5.0 | 0.00 | 0.00 | 0.00 | 82 | 1014.2 |
| 20260508094733 | 74 | 154 | 1.0 | 4.0 | 0.00 | 0.00 | 0.00 | 83 | 1014.0 |
| 20260508094650 | 74 | 154 | 1.0 | 4.0 | 0.00 | 0.00 | 0.00 | 83 | 1014.0 |
| 20260508094146 | 74 | 154 | 0.0 | 2.0 | 0.00 | 0.00 | 0.00 | 83 | 1014.2 |
| 20260508093642 | 74 | 154 | 0.0 | 1.0 | 0.00 | 0.00 | 0.00 | 83 | 1014.1 |
| 20260508093159 | 74 | 154 | 0.0 | 1.0 | 0.00 | 0.00 | 0.00 | 83 | 1014.1 |
| 20260508092735 | 75 | 154 | 0.0 | 1.0 | 0.00 | 0.00 | 0.00 | 83 | 1014.1 |
| 20260508092128 | 75 | 154 | 0.0 | 2.0 | 0.00 | 0.00 | 0.00 | 83 | 1014.0 |
| 20260508091646 | 75 | 154 | 0.0 | 2.0 | 0.00 | 0.00 | 0.00 | 83 | 1014.1 |
| 20260508091204 | 75 | 154 | 0.0 | 1.0 | 0.00 | 0.00 | 0.00 | 83 | 1014.1 |
| 20260508090701 | 75 | 154 | 0.0 | 2.0 | 0.00 | 0.00 | 0.00 | 83 | 1014.1 |
| 20260508090139 | 75 | 154 | 0.0 | 2.0 | 0.00 | 0.00 | 0.00 | 83 | 1014.1 |
| 20260508085708 | 75 | 154 | 0.0 | 1.0 | 0.00 | 0.00 | 0.00 | 83 | 1014.1 |
| 20260508085205 | 75 | 154 | 0.0 | 1.0 | 0.00 | 0.00 | 0.00 | 83 | 1014.1 |
| 20260508084702 | 75 | 154 | 0.0 | 3.0 | 0.00 | 0.00 | 0.00 | 83 | 1014.1 |
| 20260508084218 | 76 | 154 | 0.0 | 3.0 | 0.00 | 0.00 | 0.00 | 83 | 1014.1 |
| 20260508083713 | 76 | 154 | 1.0 | 3.0 | 0.00 | 0.00 | 0.00 | 84 | 1014.1 |
| 20260508083631 | 76 | 154 | 1.0 | 3.0 | 0.00 | 0.00 | 0.00 | 84 | 1014.1 |
| 20260508083229 | 76 | 154 | 1.0 | 2.0 | 0.00 | 0.00 | 0.00 | 84 | 1014.0 |
| 20260508082643 | 76 | 154 | 1.0 | 2.0 | 0.00 | 0.00 | 0.00 | 85 | 1014.0 |
| 20260508082220 | 76 | 154 | 0.0 | 2.0 | 0.00 | 0.00 | 0.00 | 86 | 1014.0 |
| 20260508081715 | 76 | 154 | 0.0 | 2.0 | 0.00 | 0.00 | 0.00 | 86 | 1014.0 |
| 20260508081208 | 76 | 154 | 0.0 | 1.0 | 0.00 | 0.00 | 0.00 | 87 | 1014.0 |
| 20260508080644 | 76 | 154 | 0.0 | 1.0 | 0.00 | 0.00 | 0.00 | 87 | 1014.0 |
| 20260508080221 | 76 | 154 | 0.0 | 0.0 | 0.00 | 0.00 | 0.00 | 88 | 1014.1 |
| 20260508075727 | 76 | 154 | 0.0 | 0.0 | 0.00 | 0.00 | 0.00 | 88 | 1014.0 |
| 20260508075143 | 76 | 154 | 0.0 | 0.0 | 0.00 | 0.00 | 0.00 | 88 | 1014.0 |
| 20260508074642 | 76 | 154 | 0.0 | 0.0 | 0.00 | 0.00 | 0.00 | 88 | 1014.1 |
| 20260508074220 | 77 | 154 | 0.0 | 0.0 | 0.00 | 0.00 | 0.00 | 88 | 1014.1 |
| 20260508073715 | 77 | 154 | 0.0 | 0.0 | 0.00 | 0.00 | 0.00 | 88 | 1014.1 |
| 20260508073633 | 77 | 154 | 0.0 | 0.0 | 0.00 | 0.00 | 0.00 | 88 | 1014.1 |
| 20260508073246 | 77 | 154 | 0.0 | 0.0 | 0.00 | 0.00 | 0.00 | 88 | 1014.1 |
| 20260508072641 | 77 | 154 | 0.0 | 1.0 | 0.00 | 0.00 | 0.00 | 88 | 1014.1 |
| 20260508072200 | 77 | 154 | 0.0 | 2.0 | 0.00 | 0.00 | 0.00 | 88 | 1014.2 |
| 20260508071657 | 77 | 154 | 0.0 | 3.0 | 0.00 | 0.00 | 0.00 | 88 | 1014.2 |
| 20260508071137 | 77 | 154 | 1.0 | 3.0 | 0.00 | 0.00 | 0.00 | 88 | 1014.1 |
| 20260508070750 | 77 | 154 | 0.0 | 0.0 | 0.00 | 0.00 | 0.00 | 88 | 1014.1 |
| 20260508070244 | 77 | 154 | 0.0 | 0.0 | 0.00 | 0.00 | 0.00 | 88 | 1014.0 |
| 20260508070202 | 77 | 154 | 0.0 | 0.0 | 0.00 | 0.00 | 0.00 | 88 | 1014.0 |
| 20260508065647 | 77 | 154 | 0.0 | 0.0 | 0.00 | 0.00 | 0.00 | 87 | 1014.2 |
| 20260508065224 | 77 | 154 | 0.0 | 0.0 | 0.00 | 0.00 | 0.00 | 87 | 1014.2 |
| 20260508064737 | 77 | 154 | 0.0 | 0.0 | 0.00 | 0.00 | 0.00 | 87 | 1014.2 |
| 20260508064210 | 78 | 154 | 0.0 | 0.0 | 0.00 | 0.00 | 0.00 | 87 | 1014.3 |
| 20260508063728 | 78 | 154 | 0.0 | 0.0 | 0.00 | 0.00 | 0.00 | 87 | 1014.3 |
| 20260508063645 | 78 | 154 | 0.0 | 0.0 | 0.00 | 0.00 | 0.00 | 87 | 1014.3 |
| 20260508063202 | 78 | 154 | 0.0 | 0.0 | 0.00 | 0.00 | 0.00 | 87 | 1014.3 |
| 20260508062659 | 78 | 154 | 0.0 | 0.0 | 0.00 | 0.00 | 0.00 | 86 | 1014.5 |
| 20260508062136 | 78 | 154 | 0.0 | 0.0 | 0.00 | 0.00 | 0.00 | 86 | 1014.5 |
| 20260508061733 | 78 | 154 | 0.0 | 0.0 | 0.00 | 0.00 | 0.00 | 86 | 1014.5 |
| 20260508061630 | 78 | 154 | 0.0 | 0.0 | 0.00 | 0.00 | 0.00 | 86 | 1014.5 |
| 20260508061128 | 78 | 154 | 0.0 | 0.0 | 0.00 | 0.00 | 0.00 | 86 | 1014.4 |
| 20260508060646 | 78 | 154 | 0.0 | 0.0 | 0.00 | 0.00 | 0.00 | 85 | 1014.4 |
| 20260508060225 | 79 | 154 | 0.0 | 0.0 | 0.00 | 0.00 | 0.00 | 85 | 1014.4 |
| 20260508055632 | 79 | 154 | 0.0 | 0.0 | 0.00 | 0.00 | 0.00 | 84 | 1014.4 |
| 20260508055210 | 79 | 154 | 0.0 | 0.0 | 0.00 | 0.00 | 0.00 | 84 | 1014.5 |
| 20260508054742 | 79 | 154 | 0.0 | 0.0 | 0.00 | 0.00 | 0.00 | 84 | 1014.7 |
| 20260508054700 | 79 | 154 | 0.0 | 0.0 | 0.00 | 0.00 | 0.00 | 84 | 1014.7 |
| 20260508054237 | 79 | 154 | 0.0 | 0.0 | 0.00 | 0.00 | 0.00 | 84 | 1014.6 |
| 20260508054134 | 79 | 154 | 0.0 | 0.0 | 0.00 | 0.00 | 0.00 | 84 | 1014.6 |
| 20260508053652 | 79 | 154 | 0.0 | 0.0 | 0.00 | 0.00 | 0.00 | 83 | 1014.7 |
| 20260508053229 | 79 | 154 | 0.0 | 2.0 | 0.00 | 0.00 | 0.00 | 83 | 1014.7 |
| 20260508053146 | 79 | 154 | 0.0 | 2.0 | 0.00 | 0.00 | 0.00 | 83 | 1014.7 |
| 20260508052704 | 79 | 154 | 0.0 | 2.0 | 0.00 | 0.00 | 0.00 | 83 | 1014.8 |
| 20260508052241 | 80 | 154 | 0.0 | 2.0 | 0.00 | 0.00 | 0.00 | 83 | 1014.9 |
| 20260508051656 | 80 | 154 | 0.0 | 2.0 | 0.00 | 0.00 | 0.00 | 83 | 1014.8 |